Погода в Ключах

Россия / Оренбургская область     52°56′54″N   52°44′12″E
темп.,
°C
ветер,
м/с
пор.,
м/с
влажн.,
%
обл.,
%
осадки,
мм/ч
давл.,
гПа
погр.,
м
10 августа, ср
ср1023:00+22зсз346498 0.0 101766
02:00+21с1166100 0.6 101711
05:00+20в1169100 0.8 101711
08:00+22св11683 0.7 1018105
11:00+27св22485 0.7 1017736
14:00+31ссв113655 0.0 10172511
17:00+27зюз4549100 0.2 1016106
20:00+25сз225396 0.4 101619
11 августа, чт
чт1123:00+22ссв34655 0.5 101750
02:00+20ссв117225 0.0 101811
05:00+19св12755 0.0 101811
08:00+22ссв246731 0.0 1019128
11:00+28ссв334697 0.0 1019840
14:00+30с3434100 0.0 10192220
17:00+30с543472 0.0 10182324
20:00+27с584698 0.0 1018309
12 августа, пт
пт1223:00+19св41088100 1.3 1020216
02:00+18св3983100 0.1 1021237
05:00+16св4107913 0.1 1021213
08:00+17св49710 0.0 1023281
11:00+22св45443 0.0 1022854
14:00+26ссв44294 0.0 10221425
17:00+26ссв33275 0.0 10211733
20:00+23ссв3440100 0.0 102153
13 августа, сб
сб1323:00+18ссв23515 0.0 102119
02:00+16св11600 0.0 102211
05:00+15ссв11660 0.0 102211
08:00+18с11581 0.0 102289
11:00+24ссз34430 0.0 10221072
14:00+27ссз45322 0.0 10211742
17:00+28с45295 0.0 10201982
20:00+24с3443100 0.0 101959
14 августа, вс
вс1423:00+20с33579 0.0 102023
02:00+18ссв22672 0.0 102022
05:00+17ссв22733 0.0 102022
08:00+20св24650 0.0 1021163
11:00+25св34415 0.0 10211062
14:00+28св443510 0.0 10202117
17:00+28ссв543328 0.0 10192307
20:00+24св484083 0.0 1019246